When you browse on this site, cookies collect data to enhance your experience and personalize the content and advertising you see.
Visit our Privacy Policy to learn more. By continuing to use the site, you agree to this use of cookies and data.
  • In Switzerland
  • List of Countries
  • For 7 days
  • Water Temperature
  • Satellite Maps
  • Weather Map
  • Weather Widgets
  • user-avatar
    Login

    Hourly Weather Zaborovka

    Today, 27 June, Thursday

    Time Temperature Precipitation Wind Pressure Humidity
    00:00 +17°C° 0 mm 3 mps 745 mmHg 86%
    01:00 +17°C° 0.2 mm 2 mps 745 mmHg 89%
    02:00 +16°C° 0.2 mm 2 mps 744 mmHg 91%
    03:00 +16°C° 0.2 mm 2 mps 744 mmHg 93%
    04:00 +16°C° 0.5 mm 2 mps 743 mmHg 95%
    05:00 +16°C° 0.5 mm 2 mps 743 mmHg 96%
    06:00 +16°C° 0.5 mm 2 mps 742 mmHg 97%
    07:00 +17°C° 0.3 mm 2 mps 742 mmHg 95%
    08:00 +17°C° 0.3 mm 2 mps 741 mmHg 92%
    09:00 +18°C° 0.3 mm 2 mps 741 mmHg 90%
    10:00 +19°C° 0.1 mm 2 mps 740 mmHg 89%
    11:00 +19°C° 0.1 mm 2 mps 739 mmHg 89%
    12:00 +20°C° 0.1 mm 2 mps 739 mmHg 88%
    13:00 +20°C° 1.9 mm 3 mps 738 mmHg 91%
    14:00 +19°C° 1.9 mm 3 mps 737 mmHg 93%
    15:00 +19°C° 1.9 mm 3 mps 736 mmHg 96%
    16:00 +19°C° 1.1 mm 4 mps 735 mmHg 95%
    17:00 +19°C° 1.1 mm 5 mps 734 mmHg 94%
    18:00 +20°C° 1.1 mm 6 mps 733 mmHg 94%
    19:00 +20°C° 2.6 mm 5 mps 732 mmHg 93%
    20:00 +20°C° 2.6 mm 4 mps 731 mmHg 93%
    21:00 +20°C° 2.6 mm 3 mps 730 mmHg 93%
    22:00 +19°C° 0 mm 4 mps 730 mmHg 93%
    23:00 +19°C° 0 mm 4 mps 729 mmHg 94%

    Tomorrow, 28 June, Friday

    Time Temperature Precipitation Wind Pressure Humidity
    00:00 +19°C° 0 mm 5 mps 728 mmHg 95%
    01:00 +19°C° 0 mm 5 mps 728 mmHg 95%
    02:00 +17°C° 0 mm 5 mps 728 mmHg 95%
    03:00 +17°C° 0 mm 6 mps 728 mmHg 94%
    04:00 +17°C° 0 mm 6 mps 727 mmHg 94%
    05:00 +16°C° 0 mm 6 mps 727 mmHg 93%
    06:00 +16°C° 0 mm 6 mps 727 mmHg 92%
    07:00 +15°C° 0 mm 6 mps 727 mmHg 91%
    08:00 +15°C° 0 mm 6 mps 727 mmHg 89%
    09:00 +15°C° 0 mm 6 mps 727 mmHg 88%
    10:00 +15°C° 0.1 mm 6 mps 727 mmHg 85%
    11:00 +16°C° 0.1 mm 7 mps 727 mmHg 83%
    12:00 +16°C° 0.1 mm 7 mps 727 mmHg 80%
    13:00 +16°C° 0.1 mm 7 mps 727 mmHg 80%
    14:00 +15°C° 0.1 mm 7 mps 727 mmHg 80%
    15:00 +15°C° 0.1 mm 7 mps 727 mmHg 81%
    16:00 +15°C° 0.1 mm 6 mps 727 mmHg 81%
    17:00 +15°C° 0.1 mm 6 mps 727 mmHg 81%
    18:00 +15°C° 0.1 mm 5 mps 727 mmHg 81%
    19:00 +14°C° 0.1 mm 4 mps 727 mmHg 83%
    20:00 +13°C° 0.1 mm 4 mps 727 mmHg 85%
    21:00 +13°C° 0.1 mm 3 mps 727 mmHg 88%
    22:00 +12°C° 0.1 mm 4 mps 727 mmHg 89%
    23:00 +12°C° 0.1 mm 4 mps 727 mmHg 91%

    Day after tomorrow, 29 June, Saturday

    Time Temperature Precipitation Wind Pressure Humidity
    00:00 +10°C° 0.1 mm 5 mps 727 mmHg 92%
    01:00 +10°C° 0.3 mm 5 mps 727 mmHg 93%
    02:00 +10°C° 0.3 mm 6 mps 728 mmHg 94%
    03:00 +10°C° 0.3 mm 7 mps 728 mmHg 94%
    04:00 +10°C° 0.3 mm 7 mps 728 mmHg 94%
    05:00 +10°C° 0.3 mm 7 mps 728 mmHg 94%
    06:00 +10°C° 0.3 mm 7 mps 728 mmHg 94%
    07:00 +9°C° 0.5 mm 7 mps 729 mmHg 94%
    08:00 +9°C° 0.5 mm 8 mps 729 mmHg 93%
    09:00 +9°C° 0.5 mm 8 mps 730 mmHg 93%
    10:00 +7°C° 0.4 mm 8 mps 731 mmHg 93%
    11:00 +7°C° 0.4 mm 8 mps 731 mmHg 93%
    12:00 +6°C° 0.4 mm 7 mps 732 mmHg 93%
    13:00 +6°C° 0.4 mm 7 mps 733 mmHg 93%
    14:00 +6°C° 0.4 mm 7 mps 733 mmHg 93%
    15:00 +7°C° 0.4 mm 6 mps 734 mmHg 93%
    16:00 +7°C° 0.5 mm 6 mps 734 mmHg 93%
    17:00 +7°C° 0.5 mm 6 mps 735 mmHg 94%
    18:00 +5°C° 0.5 mm 6 mps 735 mmHg 94%
    19:00 +6°C° 0.7 mm 5 mps 736 mmHg 95%
    20:00 +6°C° 0.7 mm 5 mps 736 mmHg 95%
    21:00 +6°C° 0.7 mm 4 mps 736 mmHg 95%
    22:00 +7°C° 0.6 mm 4 mps 736 mmHg 95%
    23:00 +7°C° 0.6 mm 4 mps 736 mmHg 95%

    30 June, Sunday

    Time Temperature Precipitation Wind Pressure Humidity
    00:00 +7°C° 0.6 mm 4 mps 736 mmHg 94%
    01:00 +7°C° 0.4 mm 4 mps 737 mmHg 94%
    02:00 +7°C° 0.4 mm 4 mps 737 mmHg 94%
    03:00 +7°C° 0.4 mm 4 mps 737 mmHg 93%
    04:00 +7°C° 0.5 mm 4 mps 737 mmHg 93%
    05:00 +7°C° 0.5 mm 4 mps 737 mmHg 92%
    06:00 +8°C° 0.5 mm 3 mps 738 mmHg 92%
    07:00 +9°C° 0.2 mm 3 mps 738 mmHg 90%
    08:00 +10°C° 0.2 mm 3 mps 738 mmHg 88%
    09:00 +11°C° 0.2 mm 3 mps 739 mmHg 85%
    10:00 +12°C° 0 mm 4 mps 739 mmHg 78%
    11:00 +14°C° 0 mm 5 mps 739 mmHg 71%
    12:00 +16°C° 0 mm 5 mps 740 mmHg 64%
    13:00 +16°C° 0 mm 6 mps 740 mmHg 63%
    14:00 +17°C° 0 mm 6 mps 740 mmHg 61%
    15:00 +17°C° 0 mm 6 mps 740 mmHg 60%
    16:00 +17°C° 0 mm 5 mps 740 mmHg 63%
    17:00 +18°C° 0 mm 4 mps 740 mmHg 66%
    18:00 +18°C° 0 mm 4 mps 740 mmHg 69%
    19:00 +17°C° 0 mm 3 mps 741 mmHg 72%
    20:00 +14°C° 0 mm 3 mps 741 mmHg 74%
    21:00 +12°C° 0 mm 3 mps 741 mmHg 77%
    22:00 +13°C° 0 mm 2 mps 741 mmHg 78%
    23:00 +12°C° 0 mm 2 mps 741 mmHg 79%

    1 July, Monday

    Time Temperature Precipitation Wind Pressure Humidity
    00:00 +12°C° 0 mm 2 mps 741 mmHg 80%
    01:00 +12°C° 0 mm 2 mps 741 mmHg 83%
    02:00 +10°C° 0 mm 2 mps 741 mmHg 85%
    03:00 +10°C° 0 mm 2 mps 741 mmHg 88%
    04:00 +12°C° 0 mm 2 mps 742 mmHg 88%
    05:00 +12°C° 0 mm 2 mps 742 mmHg 88%
    06:00 +13°C° 0 mm 2 mps 742 mmHg 88%
    07:00 +14°C° 0 mm 2 mps 742 mmHg 84%
    08:00 +16°C° 0 mm 2 mps 742 mmHg 80%
    09:00 +17°C° 0 mm 2 mps 742 mmHg 76%
    10:00 +18°C° 0.2 mm 2 mps 742 mmHg 72%
    11:00 +19°C° 0.2 mm 2 mps 742 mmHg 68%
    12:00 +20°C° 0.2 mm 2 mps 742 mmHg 65%
    13:00 +21°C° 0.2 mm 2 mps 741 mmHg 63%
    14:00 +21°C° 0.2 mm 2 mps 741 mmHg 62%
    15:00 +21°C° 0.2 mm 2 mps 741 mmHg 61%
    16:00 +22°C° 0.1 mm 1 mps 741 mmHg 62%
    17:00 +22°C° 0.1 mm 1 mps 741 mmHg 63%
    18:00 +22°C° 0.1 mm 1 mps 741 mmHg 64%
    19:00 +20°C° 0 mm 1 mps 741 mmHg 69%
    20:00 +19°C° 0 mm 1 mps 741 mmHg 75%
    21:00 +16°C° 0 mm 1 mps 741 mmHg 80%
    22:00 +15°C° 0 mm 1 mps 740 mmHg 82%
    23:00 +15°C° 0 mm 2 mps 740 mmHg 85%

    2 July, Tuesday

    Time Temperature Precipitation Wind Pressure Humidity
    00:00 +14°C° 0 mm 2 mps 740 mmHg 87%
    01:00 +14°C° 0 mm 2 mps 740 mmHg 87%
    02:00 +14°C° 0 mm 2 mps 739 mmHg 87%
    03:00 +13°C° 0 mm 2 mps 739 mmHg 88%
    04:00 +14°C° 0 mm 2 mps 739 mmHg 87%
    05:00 +14°C° 0 mm 2 mps 739 mmHg 87%
    06:00 +15°C° 0 mm 2 mps 739 mmHg 87%
    07:00 +17°C° 0 mm 3 mps 738 mmHg 83%
    08:00 +18°C° 0 mm 3 mps 738 mmHg 80%
    09:00 +20°C° 0 mm 3 mps 738 mmHg 76%
    10:00 +21°C° 0 mm 3 mps 737 mmHg 74%
    11:00 +24°C° 0 mm 3 mps 737 mmHg 72%
    12:00 +25°C° 0 mm 3 mps 737 mmHg 70%
    13:00 +25°C° 0.7 mm 3 mps 736 mmHg 72%
    14:00 +25°C° 0.7 mm 3 mps 736 mmHg 74%
    15:00 +25°C° 0.7 mm 3 mps 735 mmHg 76%
    16:00 +25°C° 1 mm 3 mps 735 mmHg 78%
    17:00 +25°C° 1 mm 4 mps 735 mmHg 81%
    18:00 +23°C° 1 mm 4 mps 735 mmHg 84%
    19:00 +22°C° 0.3 mm 4 mps 735 mmHg 87%
    20:00 +21°C° 0.3 mm 4 mps 735 mmHg 90%
    21:00 +19°C° 0.3 mm 4 mps 735 mmHg 92%
    22:00 +18°C° 0 mm 4 mps 735 mmHg 91%
    23:00 +18°C° 0 mm 4 mps 735 mmHg 90%
    Show more